Wetterdaten: Samstag, 04.07.2015
Datum Zeit Temp. A. Feuchte A. Luftdruck Regen Wind Richtung Richtung Sonnenschein ET UV Solar Taupunkt Windchill Windben Empfang
04.07.2015 00:00 20,9 C 68 % 1023,0 hPa 0,0 l/m 3,2 km/h (1 Bft) SO 129 0 min 0,000 mm 0,0 UV-I 0 W/m 14,8 C 20,9 C 7,9 km/h (2 Bft) 0,00 %
04.07.2015 00:05 20,9 C 68 % 1023,0 hPa 0,0 l/m 0,0 km/h (0 Bft) O 96 0 min 0,000 mm 0,0 UV-I 0 W/m 14,8 C 20,9 C 0,0 km/h (0 Bft) 0,00 %
04.07.2015 00:10 21,1 C 67 % 1023,0 hPa 0,0 l/m 0,0 km/h (0 Bft) SO 129 0 min 0,000 mm 0,0 UV-I 0 W/m 14,7 C 21,1 C 0,0 km/h (0 Bft) 0,00 %
04.07.2015 00:15 21,3 C 68 % 1023,0 hPa 0,0 l/m 0,0 km/h (0 Bft) O-NO 70 0 min 0,000 mm 0,0 UV-I 0 W/m 15,1 C 21,3 C 0,0 km/h (0 Bft) 0,00 %
04.07.2015 00:20 21,3 C 67 % 1022,9 hPa 0,0 l/m 0,0 km/h (0 Bft) NO 49 0 min 0,000 mm 0,0 UV-I 0 W/m 14,9 C 21,3 C 0,0 km/h (0 Bft) 0,00 %
04.07.2015 00:25 21,2 C 67 % 1023,2 hPa 0,0 l/m 0,0 km/h (0 Bft) O 80 0 min 0,000 mm 0,0 UV-I 0 W/m 14,8 C 21,2 C 0,0 km/h (0 Bft) 0,00 %
04.07.2015 00:30 21,1 C 68 % 1023,2 hPa 0,0 l/m 0,4 km/h (0 Bft) O 88 0 min 0,000 mm 0,0 UV-I 0 W/m 15,0 C 21,1 C 4,0 km/h (1 Bft) 0,00 %
04.07.2015 00:35 21,0 C 68 % 1023,1 hPa 0,0 l/m 0,0 km/h (0 Bft) NO 50 0 min 0,000 mm 0,0 UV-I 0 W/m 14,9 C 21,0 C 0,0 km/h (0 Bft) 0,00 %
04.07.2015 00:40 20,9 C 69 % 1023,2 hPa 0,0 l/m 0,0 km/h (0 Bft) O-SO 105 0 min 0,000 mm 0,0 UV-I 0 W/m 15,0 C 20,9 C 0,0 km/h (0 Bft) 0,00 %
04.07.2015 00:45 20,8 C 69 % 1023,1 hPa 0,0 l/m 0,0 km/h (0 Bft) O-NO 72 0 min 0,000 mm 0,0 UV-I 0 W/m 14,9 C 20,8 C 0,0 km/h (0 Bft) 0,00 %
04.07.2015 00:50 20,7 C 70 % 1023,0 hPa 0,0 l/m 0,4 km/h (0 Bft) O 89 0 min 0,000 mm 0,0 UV-I 0 W/m 15,0 C 20,7 C 4,0 km/h (1 Bft) 0,00 %
04.07.2015 00:55 20,6 C 70 % 1023,3 hPa 0,0 l/m 0,0 km/h (0 Bft) O-NO 75 0 min 0,000 mm 0,0 UV-I 0 W/m 14,9 C 20,6 C 0,0 km/h (0 Bft) 0,00 %
04.07.2015 01:00 20,5 C 71 % 1023,0 hPa 0,0 l/m 0,0 km/h (0 Bft) NO 47 0 min 0,000 mm 0,0 UV-I 0 W/m 15,1 C 20,5 C 0,0 km/h (0 Bft) 0,00 %
04.07.2015 01:05 20,3 C 71 % 1023,1 hPa 0,0 l/m 0,0 km/h (0 Bft) NO 55 0 min 0,000 mm 0,0 UV-I 0 W/m 14,9 C 20,3 C 0,0 km/h (0 Bft) 0,00 %
04.07.2015 01:10 20,0 C 73 % 1023,2 hPa 0,0 l/m 0,0 km/h (0 Bft) NO 43 0 min 0,000 mm 0,0 UV-I 0 W/m 15,0 C 20,0 C 0,0 km/h (0 Bft) 0,00 %
04.07.2015 01:15 19,8 C 74 % 1023,0 hPa 0,0 l/m 0,0 km/h (0 Bft) O-NO 57 0 min 0,000 mm 0,0 UV-I 0 W/m 15,0 C 19,8 C 0,0 km/h (0 Bft) 0,00 %
04.07.2015 01:20 19,6 C 75 % 1023,0 hPa 0,0 l/m 0,0 km/h (0 Bft) O 82 0 min 0,000 mm 0,0 UV-I 0 W/m 15,0 C 19,6 C 0,0 km/h (0 Bft) 0,00 %
04.07.2015 01:25 19,5 C 75 % 1023,0 hPa 0,0 l/m 0,0 km/h (0 Bft) NO 45 0 min 0,000 mm 0,0 UV-I 0 W/m 14,9 C 19,5 C 0,0 km/h (0 Bft) 0,00 %
04.07.2015 01:30 19,4 C 75 % 1023,0 hPa 0,0 l/m 0,0 km/h (0 Bft) NO 44 0 min 0,000 mm 0,0 UV-I 0 W/m 14,8 C 19,4 C 0,0 km/h (0 Bft) 0,00 %
04.07.2015 01:35 19,3 C 75 % 1023,2 hPa 0,0 l/m 0,0 km/h (0 Bft) O-NO 63 0 min 0,000 mm 0,0 UV-I 0 W/m 14,8 C 19,3 C 0,0 km/h (0 Bft) 0,00 %
04.07.2015 01:40 19,2 C 76 % 1023,1 hPa 0,0 l/m 0,0 km/h (0 Bft) NO 54 0 min 0,000 mm 0,0 UV-I 0 W/m 14,9 C 19,2 C 0,0 km/h (0 Bft) 0,00 %
04.07.2015 01:45 19,2 C 76 % 1023,3 hPa 0,0 l/m 0,0 km/h (0 Bft) NO 51 0 min 0,000 mm 0,0 UV-I 0 W/m 14,9 C 19,2 C 0,0 km/h (0 Bft) 0,00 %
04.07.2015 01:50 19,1 C 76 % 1023,0 hPa 0,0 l/m 0,0 km/h (0 Bft) O-NO 76 0 min 0,000 mm 0,0 UV-I 0 W/m 14,8 C 19,1 C 0,0 km/h (0 Bft) 0,00 %
04.07.2015 01:55 19,1 C 76 % 1022,9 hPa 0,0 l/m 0,0 km/h (0 Bft) NO 51 0 min 0,000 mm 0,0 UV-I 0 W/m 14,8 C 19,1 C 0,0 km/h (0 Bft) 0,00 %
04.07.2015 02:00 18,9 C 78 % 1022,8 hPa 0,0 l/m 0,0 km/h (0 Bft) NO 48 0 min 0,000 mm 0,0 UV-I 0 W/m 15,0 C 18,9 C 0,0 km/h (0 Bft) 0,00 %
04.07.2015 02:05 18,8 C 78 % 1022,8 hPa 0,0 l/m 0,0 km/h (0 Bft) O-NO 62 0 min 0,000 mm 0,0 UV-I 0 W/m 14,9 C 18,8 C 0,0 km/h (0 Bft) 0,00 %
04.07.2015 02:10 18,8 C 78 % 1022,9 hPa 0,0 l/m 0,0 km/h (0 Bft) O 86 0 min 0,000 mm 0,0 UV-I 0 W/m 14,9 C 18,8 C 0,0 km/h (0 Bft) 0,00 %
04.07.2015 02:15 18,9 C 76 % 1022,9 hPa 0,0 l/m 0,4 km/h (0 Bft) O 81 0 min 0,000 mm 0,0 UV-I 0 W/m 14,6 C 18,9 C 4,0 km/h (1 Bft) 0,00 %
04.07.2015 02:20 19,1 C 75 % 1022,9 hPa 0,0 l/m 0,4 km/h (0 Bft) SO 124 0 min 0,000 mm 0,0 UV-I 0 W/m 14,6 C 19,1 C 4,0 km/h (1 Bft) 0,00 %
04.07.2015 02:25 19,2 C 75 % 1023,1 hPa 0,0 l/m 0,0 km/h (0 Bft) O 86 0 min 0,000 mm 0,0 UV-I 0 W/m 14,7 C 19,2 C 0,0 km/h (0 Bft) 0,00 %
04.07.2015 02:30 19,2 C 75 % 1023,0 hPa 0,0 l/m 0,0 km/h (0 Bft) NO 46 0 min 0,000 mm 0,0 UV-I 0 W/m 14,7 C 19,2 C 0,0 km/h (0 Bft) 0,00 %
04.07.2015 02:35 19,0 C 78 % 1023,0 hPa 0,0 l/m 0,0 km/h (0 Bft) N-NO 33 0 min 0,000 mm 0,0 UV-I 0 W/m 15,1 C 19,0 C 0,0 km/h (0 Bft) 0,00 %
04.07.2015 02:40 18,7 C 79 % 1022,9 hPa 0,0 l/m 0,0 km/h (0 Bft) NO 42 0 min 0,000 mm 0,0 UV-I 0 W/m 15,0 C 18,7 C 0,0 km/h (0 Bft) 0,00 %
04.07.2015 02:45 18,4 C 80 % 1023,1 hPa 0,0 l/m 0,0 km/h (0 Bft) NO 43 0 min 0,000 mm 0,0 UV-I 0 W/m 14,9 C 18,4 C 0,0 km/h (0 Bft) 0,00 %
04.07.2015 02:50 18,0 C 82 % 1023,0 hPa 0,0 l/m 0,0 km/h (0 Bft) NO 48 0 min 0,000 mm 0,0 UV-I 0 W/m 14,9 C 18,0 C 0,0 km/h (0 Bft) 0,00 %
04.07.2015 02:55 17,8 C 82 % 1023,0 hPa 0,0 l/m 0,0 km/h (0 Bft) NO 48 0 min 0,000 mm 0,0 UV-I 0 W/m 14,7 C 17,8 C 0,0 km/h (0 Bft) 0,00 %
04.07.2015 03:00 17,7 C 83 % 1023,1 hPa 0,0 l/m 0,0 km/h (0 Bft) NO 44 0 min 0,000 mm 0,0 UV-I 0 W/m 14,8 C 17,7 C 0,0 km/h (0 Bft) 0,00 %
04.07.2015 03:05 17,4 C 84 % 1023,1 hPa 0,0 l/m 0,0 km/h (0 Bft) NO 50 0 min 0,000 mm 0,0 UV-I 0 W/m 14,7 C 17,4 C 0,0 km/h (0 Bft) 0,00 %
04.07.2015 03:10 17,2 C 84 % 1023,2 hPa 0,0 l/m 0,0 km/h (0 Bft) NO 47 0 min 0,000 mm 0,0 UV-I 0 W/m 14,5 C 17,2 C 0,0 km/h (0 Bft) 0,00 %
04.07.2015 03:15 17,1 C 84 % 1023,2 hPa 0,0 l/m 0,0 km/h (0 Bft) NO 45 0 min 0,000 mm 0,0 UV-I 0 W/m 14,4 C 17,1 C 0,0 km/h (0 Bft) 0,00 %
04.07.2015 03:20 16,9 C 84 % 1023,3 hPa 0,0 l/m 0,0 km/h (0 Bft) N-NO 26 0 min 0,000 mm 0,0 UV-I 0 W/m 14,2 C 16,9 C 0,0 km/h (0 Bft) 0,00 %
04.07.2015 03:25 16,7 C 85 % 1023,2 hPa 0,0 l/m 0,0 km/h (0 Bft) NO 40 0 min 0,000 mm 0,0 UV-I 0 W/m 14,2 C 16,7 C 0,0 km/h (0 Bft) 0,00 %
04.07.2015 03:30 16,6 C 86 % 1023,1 hPa 0,0 l/m 0,0 km/h (0 Bft) NO 44 0 min 0,000 mm 0,0 UV-I 0 W/m 14,2 C 16,6 C 0,0 km/h (0 Bft) 0,00 %
04.07.2015 03:35 16,4 C 86 % 1023,3 hPa 0,0 l/m 0,0 km/h (0 Bft) NO 49 0 min 0,000 mm 0,0 UV-I 0 W/m 14,1 C 16,4 C 0,0 km/h (0 Bft) 0,00 %
04.07.2015 03:40 16,3 C 87 % 1023,2 hPa 0,0 l/m 0,0 km/h (0 Bft) NO 45 0 min 0,000 mm 0,0 UV-I 0 W/m 14,1 C 16,3 C 0,0 km/h (0 Bft) 0,00 %
04.07.2015 03:45 16,2 C 87 % 1023,2 hPa 0,0 l/m 0,0 km/h (0 Bft) NO 49 0 min 0,000 mm 0,0 UV-I 0 W/m 14,0 C 16,2 C 0,0 km/h (0 Bft) 0,00 %
04.07.2015 03:50 16,1 C 88 % 1023,0 hPa 0,0 l/m 0,0 km/h (0 Bft) O 99 0 min 0,000 mm 0,0 UV-I 0 W/m 14,1 C 16,1 C 0,0 km/h (0 Bft) 0,00 %
04.07.2015 03:55 16,1 C 89 % 1022,9 hPa 0,0 l/m 0,0 km/h (0 Bft) O 89 0 min 0,000 mm 0,0 UV-I 0 W/m 14,3 C 16,1 C 0,0 km/h (0 Bft) 0,00 %
04.07.2015 04:00 16,2 C 89 % 1022,8 hPa 0,0 l/m 0,0 km/h (0 Bft) NO 52 0 min 0,000 mm 0,0 UV-I 0 W/m 14,4 C 16,2 C 0,0 km/h (0 Bft) 0,00 %
04.07.2015 04:05 16,3 C 89 % 1022,8 hPa 0,0 l/m 0,0 km/h (0 Bft) O-NO 59 0 min 0,000 mm 0,0 UV-I 0 W/m 14,5 C 16,3 C 0,0 km/h (0 Bft) 0,00 %
04.07.2015 04:10 16,3 C 89 % 1022,7 hPa 0,0 l/m 0,0 km/h (0 Bft) O-NO 65 0 min 0,000 mm 0,0 UV-I 0 W/m 14,5 C 16,3 C 0,0 km/h (0 Bft) 0,00 %
04.07.2015 04:15 16,4 C 88 % 1022,8 hPa 0,0 l/m 0,0 km/h (0 Bft) O-NO 57 0 min 0,000 mm 0,0 UV-I 0 W/m 14,4 C 16,4 C 0,0 km/h (0 Bft) 0,00 %
04.07.2015 04:20 16,4 C 88 % 1023,0 hPa 0,0 l/m 0,4 km/h (0 Bft) W-NW 302 0 min 0,000 mm 0,0 UV-I 0 W/m 14,4 C 16,4 C 4,0 km/h (1 Bft) 0,00 %
04.07.2015 04:25 16,3 C 87 % 1022,9 hPa 0,0 l/m 0,0 km/h (0 Bft) NO 46 0 min 0,000 mm 0,0 UV-I 0 W/m 14,1 C 16,3 C 0,0 km/h (0 Bft) 0,00 %
04.07.2015 04:30 16,1 C 89 % 1023,1 hPa 0,0 l/m 0,0 km/h (0 Bft) NO 41 0 min 0,000 mm 0,0 UV-I 0 W/m 14,3 C 16,1 C 0,0 km/h (0 Bft) 0,00 %
04.07.2015 04:35 15,9 C 89 % 1023,1 hPa 0,0 l/m 0,0 km/h (0 Bft) NO 42 0 min 0,000 mm 0,0 UV-I 0 W/m 14,1 C 15,9 C 0,0 km/h (0 Bft) 0,00 %
04.07.2015 04:40 15,8 C 90 % 1023,1 hPa 0,0 l/m 0,0 km/h (0 Bft) NO 41 0 min 0,000 mm 0,0 UV-I 0 W/m 14,2 C 15,8 C 0,0 km/h (0 Bft) 0,00 %
04.07.2015 04:45 15,7 C 90 % 1023,0 hPa 0,0 l/m 0,0 km/h (0 Bft) NO 41 0 min 0,000 mm 0,0 UV-I 0 W/m 14,1 C 15,7 C 0,0 km/h (0 Bft) 0,00 %
04.07.2015 04:50 15,7 C 91 % 1023,1 hPa 0,0 l/m 0,0 km/h (0 Bft) NO 41 0 min 0,000 mm 0,0 UV-I 0 W/m 14,2 C 15,7 C 0,0 km/h (0 Bft) 0,00 %
04.07.2015 04:55 15,7 C 91 % 1023,1 hPa 0,0 l/m 0,0 km/h (0 Bft) NO 41 0 min 0,000 mm 0,0 UV-I 0 W/m 14,2 C 15,7 C 0,0 km/h (0 Bft) 0,00 %
04.07.2015 05:00 15,6 C 91 % 1023,0 hPa 0,0 l/m 0,0 km/h (0 Bft) NO 45 0 min 0,000 mm 0,0 UV-I 0 W/m 14,1 C 15,6 C 0,0 km/h (0 Bft) 0,00 %
04.07.2015 05:05 15,6 C 91 % 1023,1 hPa 0,0 l/m 0,0 km/h (0 Bft) NO 45 0 min 0,000 mm 0,0 UV-I 0 W/m 14,1 C 15,6 C 0,0 km/h (0 Bft) 0,00 %
04.07.2015 05:10 15,5 C 91 % 1022,9 hPa 0,0 l/m 0,0 km/h (0 Bft) NO 43 0 min 0,000 mm 0,0 UV-I 0 W/m 14,0 C 15,5 C 0,0 km/h (0 Bft) 0,00 %
04.07.2015 05:15 15,5 C 91 % 1022,8 hPa 0,0 l/m 0,0 km/h (0 Bft) NO 43 0 min 0,000 mm 0,0 UV-I 2 W/m 14,0 C 15,5 C 0,0 km/h (0 Bft) 0,00 %
04.07.2015 05:20 15,6 C 91 % 1022,8 hPa 0,0 l/m 0,0 km/h (0 Bft) NO 43 0 min 0,000 mm 0,0 UV-I 6 W/m 14,1 C 15,6 C 0,0 km/h (0 Bft) 0,00 %
04.07.2015 05:25 15,5 C 91 % 1022,8 hPa 0,0 l/m 0,0 km/h (0 Bft) NO 43 0 min 0,000 mm 0,0 UV-I 12 W/m 14,0 C 15,5 C 0,0 km/h (0 Bft) 0,00 %
04.07.2015 05:30 15,5 C 91 % 1022,7 hPa 0,0 l/m 0,0 km/h (0 Bft) NO 43 5 min 0,000 mm 0,0 UV-I 21 W/m 14,0 C 15,5 C 0,0 km/h (0 Bft) 0,00 %
04.07.2015 05:35 15,5 C 91 % 1022,5 hPa 0,0 l/m 0,0 km/h (0 Bft) NO 43 5 min 0,000 mm 0,0 UV-I 27 W/m 14,0 C 15,5 C 0,0 km/h (0 Bft) 0,00 %
04.07.2015 05:40 15,5 C 91 % 1022,3 hPa 0,0 l/m 0,0 km/h (0 Bft) NO 43 5 min 0,000 mm 0,0 UV-I 35 W/m 14,0 C 15,5 C 0,0 km/h (0 Bft) 0,00 %
04.07.2015 05:45 15,7 C 90 % 1021,9 hPa 0,0 l/m 0,0 km/h (0 Bft) O-NO 60 5 min 0,000 mm 0,0 UV-I 43 W/m 14,1 C 15,7 C 0,0 km/h (0 Bft) 0,00 %
04.07.2015 05:50 15,8 C 88 % 1021,7 hPa 0,0 l/m 0,0 km/h (0 Bft) O-NO 72 5 min 0,000 mm 0,0 UV-I 58 W/m 13,8 C 15,8 C 0,0 km/h (0 Bft) 0,00 %
04.07.2015 05:55 16,2 C 87 % 1021,6 hPa 0,0 l/m 0,0 km/h (0 Bft) O-NO 72 5 min 0,000 mm 0,0 UV-I 92 W/m 14,0 C 16,2 C 0,0 km/h (0 Bft) 0,00 %
04.07.2015 06:00 16,8 C 86 % 1021,5 hPa 0,0 l/m 0,0 km/h (0 Bft) N-NO 25 5 min 0,000 mm 0,0 UV-I 109 W/m 14,4 C 16,8 C 0,0 km/h (0 Bft) 0,00 %
04.07.2015 06:05 17,4 C 83 % 1021,1 hPa 0,0 l/m 0,0 km/h (0 Bft) N-NO 30 5 min 0,000 mm 0,0 UV-I 128 W/m 14,5 C 17,4 C 0,0 km/h (0 Bft) 0,00 %
04.07.2015 06:10 17,9 C 80 % 1021,4 hPa 0,0 l/m 0,0 km/h (0 Bft) N-NO 32 5 min 0,000 mm 0,0 UV-I 171 W/m 14,4 C 17,9 C 0,0 km/h (0 Bft) 0,00 %
04.07.2015 06:15 18,4 C 77 % 1021,4 hPa 0,0 l/m 0,0 km/h (0 Bft) N-NO 31 5 min 0,000 mm 0,0 UV-I 182 W/m 14,3 C 18,4 C 0,0 km/h (0 Bft) 0,00 %
04.07.2015 06:20 18,8 C 74 % 1021,2 hPa 0,0 l/m 0,0 km/h (0 Bft) N-NO 32 5 min 0,000 mm 0,0 UV-I 165 W/m 14,1 C 18,8 C 0,0 km/h (0 Bft) 0,00 %
04.07.2015 06:25 19,1 C 74 % 1021,3 hPa 0,0 l/m 0,0 km/h (0 Bft) N-NO 28 5 min 0,000 mm 1,0 UV-I 195 W/m 14,4 C 19,1 C 0,0 km/h (0 Bft) 0,00 %
04.07.2015 06:30 19,4 C 73 % 1021,0 hPa 0,0 l/m 0,0 km/h (0 Bft) N-NO 32 5 min 0,000 mm 1,0 UV-I 247 W/m 14,4 C 19,4 C 0,0 km/h (0 Bft) 0,00 %
04.07.2015 06:35 19,6 C 73 % 1021,1 hPa 0,0 l/m 0,0 km/h (0 Bft) N-NO 33 5 min 0,000 mm 1,0 UV-I 264 W/m 14,6 C 19,6 C 0,0 km/h (0 Bft) 0,00 %
04.07.2015 06:40 19,8 C 71 % 1021,0 hPa 0,0 l/m 0,0 km/h (0 Bft) NO 35 5 min 0,000 mm 1,0 UV-I 281 W/m 14,4 C 19,8 C 0,0 km/h (0 Bft) 0,00 %
04.07.2015 06:45 20,2 C 70 % 1020,7 hPa 0,0 l/m 0,0 km/h (0 Bft) NO 38 5 min 0,000 mm 1,0 UV-I 305 W/m 14,5 C 20,2 C 0,0 km/h (0 Bft) 0,00 %
04.07.2015 06:50 20,7 C 69 % 1020,6 hPa 0,0 l/m 0,0 km/h (0 Bft) NO 42 5 min 0,000 mm 1,0 UV-I 326 W/m 14,8 C 20,7 C 0,0 km/h (0 Bft) 0,00 %
04.07.2015 06:55 21,0 C 70 % 1021,0 hPa 0,0 l/m 0,0 km/h (0 Bft) NO 49 5 min 0,000 mm 1,0 UV-I 345 W/m 15,3 C 21,0 C 0,0 km/h (0 Bft) 0,00 %
04.07.2015 07:00 20,9 C 70 % 1020,8 hPa 0,0 l/m 0,0 km/h (0 Bft) NO 41 5 min 0,000 mm 1,0 UV-I 339 W/m 15,2 C 20,9 C 0,0 km/h (0 Bft) 0,00 %
04.07.2015 07:05 20,9 C 65 % 1020,8 hPa 0,0 l/m 0,0 km/h (0 Bft) NO 47 5 min 0,000 mm 1,0 UV-I 347 W/m 14,1 C 20,9 C 0,0 km/h (0 Bft) 0,00 %
04.07.2015 07:10 21,3 C 65 % 1021,0 hPa 0,0 l/m 0,0 km/h (0 Bft) N-NO 12 5 min 0,000 mm 1,0 UV-I 368 W/m 14,4 C 21,3 C 0,0 km/h (0 Bft) 0,00 %
04.07.2015 07:15 21,6 C 66 % 1021,0 hPa 0,0 l/m 0,0 km/h (0 Bft) N-NO 19 5 min 0,000 mm 1,0 UV-I 373 W/m 15,0 C 21,6 C 0,0 km/h (0 Bft) 0,00 %
04.07.2015 07:20 21,7 C 64 % 1020,7 hPa 0,0 l/m 0,0 km/h (0 Bft) NO 49 5 min 0,000 mm 1,0 UV-I 371 W/m 14,6 C 21,7 C 0,0 km/h (0 Bft) 0,00 %
04.07.2015 07:25 21,7 C 64 % 1020,8 hPa 0,0 l/m 0,0 km/h (0 Bft) N-NO 25 5 min 0,000 mm 1,0 UV-I 392 W/m 14,6 C 21,7 C 0,0 km/h (0 Bft) 0,00 %
04.07.2015 07:30 21,8 C 66 % 1020,7 hPa 0,0 l/m 0,0 km/h (0 Bft) NO 47 5 min 0,000 mm 1,0 UV-I 405 W/m 15,2 C 21,8 C 0,0 km/h (0 Bft) 0,00 %
04.07.2015 07:35 22,0 C 64 % 1020,9 hPa 0,0 l/m 0,0 km/h (0 Bft) NO 36 5 min 0,000 mm 1,0 UV-I 422 W/m 14,9 C 22,0 C 0,0 km/h (0 Bft) 0,00 %
04.07.2015 07:40 22,3 C 62 % 1020,8 hPa 0,0 l/m 0,0 km/h (0 Bft) N-NO 33 5 min 0,000 mm 1,0 UV-I 426 W/m 14,7 C 22,3 C 0,0 km/h (0 Bft) 0,00 %
04.07.2015 07:45 23,0 C 61 % 1020,5 hPa 0,0 l/m 0,0 km/h (0 Bft) NO 36 5 min 0,000 mm 1,0 UV-I 438 W/m 15,1 C 23,0 C 0,0 km/h (0 Bft) 0,00 %
04.07.2015 07:50 23,5 C 61 % 1020,5 hPa 0,0 l/m 0,0 km/h (0 Bft) N-NO 25 5 min 0,000 mm 1,0 UV-I 436 W/m 15,5 C 23,5 C 0,0 km/h (0 Bft) 0,00 %
04.07.2015 07:55 23,8 C 58 % 1020,2 hPa 0,0 l/m 0,0 km/h (0 Bft) NO 48 5 min 0,000 mm 1,0 UV-I 452 W/m 15,0 C 23,8 C 0,0 km/h (0 Bft) 0,00 %
04.07.2015 08:00 24,0 C 61 % 1020,4 hPa 0,0 l/m 0,0 km/h (0 Bft) NO 40 5 min 0,000 mm 1,0 UV-I 428 W/m 16,0 C 24,0 C 0,0 km/h (0 Bft) 0,00 %
04.07.2015 08:05 24,0 C 59 % 1020,4 hPa 0,0 l/m 0,0 km/h (0 Bft) NO 40 5 min 0,000 mm 1,0 UV-I 468 W/m 15,5 C 24,0 C 0,0 km/h (0 Bft) 0,00 %
04.07.2015 08:10 24,2 C 58 % 1020,3 hPa 0,0 l/m 0,0 km/h (0 Bft) N-NO 24 5 min 0,000 mm 1,0 UV-I 477 W/m 15,4 C 24,2 C 0,0 km/h (0 Bft) 0,00 %
04.07.2015 08:15 24,5 C 59 % 1021,3 hPa 0,0 l/m 0,0 km/h (0 Bft) NO 50 5 min 0,000 mm 2,0 UV-I 484 W/m 15,9 C 24,5 C 0,0 km/h (0 Bft) 0,00 %
04.07.2015 08:20 24,6 C 58 % 1021,1 hPa 0,0 l/m 2,9 km/h (1 Bft) O-NO 71 5 min 0,000 mm 2,0 UV-I 489 W/m 15,8 C 24,6 C 4,0 km/h (1 Bft) 0,00 %
04.07.2015 08:25 24,4 C 56 % 1021,1 hPa 0,0 l/m 0,0 km/h (0 Bft) O-NO 66 5 min 0,000 mm 2,0 UV-I 462 W/m 15,0 C 24,4 C 0,0 km/h (0 Bft) 0,00 %
04.07.2015 08:30 24,3 C 57 % 1021,2 hPa 0,0 l/m 0,0 km/h (0 Bft) O 98 5 min 0,000 mm 2,0 UV-I 510 W/m 15,2 C 24,3 C 0,0 km/h (0 Bft) 0,00 %
04.07.2015 08:35 24,4 C 57 % 1021,4 hPa 0,0 l/m 2,9 km/h (1 Bft) NO 56 5 min 0,000 mm 2,0 UV-I 522 W/m 15,3 C 24,4 C 4,0 km/h (1 Bft) 0,00 %
04.07.2015 08:40 24,6 C 55 % 1021,2 hPa 0,0 l/m 0,0 km/h (0 Bft) N-NO 29 5 min 0,000 mm 2,0 UV-I 530 W/m 14,9 C 24,6 C 0,0 km/h (0 Bft) 0,00 %
04.07.2015 08:45 24,8 C 55 % 1021,4 hPa 0,0 l/m 0,0 km/h (0 Bft) N 2 5 min 0,000 mm 2,0 UV-I 496 W/m 15,1 C 24,8 C 0,0 km/h (0 Bft) 0,00 %
04.07.2015 08:50 25,0 C 54 % 1021,1 hPa 0,0 l/m 0,7 km/h (0 Bft) N 351 5 min 0,000 mm 2,0 UV-I 541 W/m 15,0 C 25,0 C 4,0 km/h (1 Bft) 0,00 %
04.07.2015 08:55 25,0 C 56 % 1021,3 hPa 0,0 l/m 0,0 km/h (0 Bft) NO 46 5 min 0,000 mm 2,0 UV-I 550 W/m 15,6 C 25,0 C 0,0 km/h (0 Bft) 0,00 %
04.07.2015 09:00 25,2 C 53 % 1021,1 hPa 0,0 l/m 0,0 km/h (0 Bft) NO 56 5 min 0,000 mm 2,0 UV-I 553 W/m 14,9 C 25,2 C 0,0 km/h (0 Bft) 0,00 %
04.07.2015 09:05 25,4 C 55 % 1021,0 hPa 0,0 l/m 0,0 km/h (0 Bft) O-NO 64 5 min 0,000 mm 2,0 UV-I 562 W/m 15,7 C 25,4 C 0,0 km/h (0 Bft) 0,00 %
04.07.2015 09:10 25,4 C 55 % 1020,9 hPa 0,0 l/m 2,9 km/h (1 Bft) O 82 5 min 0,000 mm 2,0 UV-I 575 W/m 15,7 C 25,4 C 4,0 km/h (1 Bft) 0,00 %
04.07.2015 09:15 25,3 C 56 % 1021,0 hPa 0,0 l/m 0,0 km/h (0 Bft) O 85 5 min 0,000 mm 2,0 UV-I 585 W/m 15,9 C 25,3 C 0,0 km/h (0 Bft) 0,00 %
04.07.2015 09:20 25,5 C 55 % 1021,1 hPa 0,0 l/m 0,0 km/h (0 Bft) N-NO 20 5 min 0,000 mm 2,0 UV-I 597 W/m 15,8 C 25,5 C 0,0 km/h (0 Bft) 0,00 %
04.07.2015 09:25 25,8 C 53 % 1020,8 hPa 0,0 l/m 2,2 km/h (1 Bft) O-NO 63 5 min 0,000 mm 2,0 UV-I 606 W/m 15,5 C 25,8 C 4,0 km/h (1 Bft) 0,00 %
04.07.2015 09:30 26,0 C 53 % 1020,8 hPa 0,0 l/m 1,4 km/h (1 Bft) O-NO 78 5 min 0,000 mm 2,0 UV-I 603 W/m 15,7 C 26,0 C 4,0 km/h (1 Bft) 0,00 %
04.07.2015 09:35 26,2 C 53 % 1020,6 hPa 0,0 l/m 0,0 km/h (0 Bft) O 84 5 min 0,000 mm 3,0 UV-I 637 W/m 15,8 C 26,2 C 0,0 km/h (0 Bft) 0,00 %
04.07.2015 09:40 26,3 C 54 % 1020,7 hPa 0,0 l/m 4,7 km/h (1 Bft) O-SO 115 5 min 0,000 mm 3,0 UV-I 651 W/m 16,2 C 26,3 C 7,9 km/h (2 Bft) 0,00 %
04.07.2015 09:45 26,5 C 54 % 1020,7 hPa 0,0 l/m 2,9 km/h (1 Bft) SO 128 5 min 0,000 mm 3,0 UV-I 656 W/m 16,4 C 26,5 C 4,0 km/h (1 Bft) 0,00 %
04.07.2015 09:50 26,7 C 53 % 1020,6 hPa 0,0 l/m 0,0 km/h (0 Bft) O-NO 74 5 min 0,000 mm 3,0 UV-I 660 W/m 16,3 C 26,7 C 0,0 km/h (0 Bft) 0,00 %
04.07.2015 09:55 26,7 C 54 % 1020,6 hPa 0,0 l/m 1,4 km/h (1 Bft) O-NO 66 5 min 0,000 mm 3,0 UV-I 674 W/m 16,6 C 26,7 C 4,0 km/h (1 Bft) 0,00 %
04.07.2015 10:00 26,7 C 53 % 1020,7 hPa 0,0 l/m 0,4 km/h (0 Bft) O-NO 69 5 min 0,000 mm 3,0 UV-I 683 W/m 16,3 C 26,7 C 4,0 km/h (1 Bft) 0,00 %
04.07.2015 10:05 26,9 C 52 % 1020,7 hPa 0,0 l/m 0,0 km/h (0 Bft) NO 41 5 min 0,000 mm 3,0 UV-I 693 W/m 16,2 C 26,9 C 0,0 km/h (0 Bft) 0,00 %
04.07.2015 10:10 26,8 C 55 % 1020,7 hPa 0,0 l/m 0,0 km/h (0 Bft) O-NO 68 5 min 0,000 mm 3,0 UV-I 703 W/m 17,0 C 26,8 C 0,0 km/h (0 Bft) 0,00 %
04.07.2015 10:15 26,8 C 53 % 1020,8 hPa 0,0 l/m 0,7 km/h (0 Bft) O-NO 70 5 min 0,000 mm 3,0 UV-I 709 W/m 16,4 C 26,8 C 4,0 km/h (1 Bft) 0,00 %
04.07.2015 10:20 26,9 C 52 % 1020,7 hPa 0,0 l/m 0,0 km/h (0 Bft) NO 37 5 min 0,000 mm 3,0 UV-I 714 W/m 16,2 C 26,9 C 0,0 km/h (0 Bft) 0,00 %
04.07.2015 10:25 27,0 C 52 % 1020,5 hPa 0,0 l/m 3,2 km/h (1 Bft) O-SO 108 5 min 0,000 mm 3,0 UV-I 723 W/m 16,3 C 27,0 C 4,0 km/h (1 Bft) 0,00 %
04.07.2015 10:30 27,2 C 52 % 1020,4 hPa 0,0 l/m 2,9 km/h (1 Bft) O-NO 64 5 min 0,000 mm 4,0 UV-I 730 W/m 16,5 C 27,2 C 4,0 km/h (1 Bft) 0,00 %
04.07.2015 10:35 27,2 C 54 % 1020,5 hPa 0,0 l/m 3,2 km/h (1 Bft) O-SO 118 5 min 0,000 mm 4,0 UV-I 740 W/m 17,1 C 27,2 C 7,9 km/h (2 Bft) 0,00 %
04.07.2015 10:40 27,2 C 53 % 1020,6 hPa 0,0 l/m 0,0 km/h (0 Bft) NO 34 5 min 0,000 mm 4,0 UV-I 749 W/m 16,8 C 27,2 C 0,0 km/h (0 Bft) 0,00 %
04.07.2015 10:45 27,4 C 52 % 1020,3 hPa 0,0 l/m 0,4 km/h (0 Bft) O-NO 59 5 min 0,000 mm 4,0 UV-I 759 W/m 16,7 C 27,4 C 4,0 km/h (1 Bft) 0,00 %
04.07.2015 10:50 27,7 C 51 % 1020,4 hPa 0,0 l/m 1,4 km/h (1 Bft) NO 50 5 min 0,000 mm 4,0 UV-I 766 W/m 16,6 C 27,7 C 4,0 km/h (1 Bft) 0,00 %
04.07.2015 10:55 27,8 C 52 % 1020,4 hPa 0,0 l/m 0,0 km/h (0 Bft) O-NO 68 5 min 0,000 mm 4,0 UV-I 766 W/m 17,0 C 27,8 C 0,0 km/h (0 Bft) 0,00 %
04.07.2015 11:00 27,8 C 51 % 1020,2 hPa 0,0 l/m 0,7 km/h (0 Bft) O-SO 113 5 min 0,000 mm 4,0 UV-I 776 W/m 16,7 C 27,8 C 4,0 km/h (1 Bft) 0,00 %
04.07.2015 11:05 28,0 C 50 % 1020,2 hPa 0,0 l/m 0,0 km/h (0 Bft) O 79 5 min 0,000 mm 4,0 UV-I 780 W/m 16,6 C 28,0 C 0,0 km/h (0 Bft) 0,00 %
04.07.2015 11:10 28,3 C 51 % 1020,2 hPa 0,0 l/m 7,2 km/h (2 Bft) SO 144 5 min 0,000 mm 5,0 UV-I 793 W/m 17,2 C 28,2 C 11,9 km/h (2 Bft) 0,00 %
04.07.2015 11:15 28,3 C 49 % 1020,3 hPa 0,0 l/m 0,7 km/h (0 Bft) O-NO 70 5 min 0,000 mm 5,0 UV-I 798 W/m 16,5 C 28,3 C 4,0 km/h (1 Bft) 0,00 %
04.07.2015 11:20 28,4 C 49 % 1020,3 hPa 0,0 l/m 5,8 km/h (2 Bft) O-SO 114 5 min 0,000 mm 5,0 UV-I 804 W/m 16,6 C 28,4 C 7,9 km/h (2 Bft) 0,00 %
04.07.2015 11:25 28,3 C 50 % 1020,3 hPa 0,0 l/m 4,7 km/h (1 Bft) O 85 5 min 0,000 mm 5,0 UV-I 815 W/m 16,9 C 28,3 C 7,9 km/h (2 Bft) 0,00 %
04.07.2015 11:30 28,4 C 50 % 1020,0 hPa 0,0 l/m 1,8 km/h (1 Bft) O 80 5 min 0,000 mm 5,0 UV-I 815 W/m 17,0 C 28,4 C 4,0 km/h (1 Bft) 0,00 %
04.07.2015 11:35 28,6 C 49 % 1020,0 hPa 0,0 l/m 4,7 km/h (1 Bft) NO 34 5 min 0,000 mm 5,0 UV-I 821 W/m 16,8 C 28,6 C 7,9 km/h (2 Bft) 0,00 %
04.07.2015 11:40 28,9 C 47 % 1019,9 hPa 0,0 l/m 1,8 km/h (1 Bft) N-NO 25 5 min 0,000 mm 5,0 UV-I 828 W/m 16,4 C 28,9 C 4,0 km/h (1 Bft) 0,00 %
04.07.2015 11:45 29,1 C 44 % 1019,8 hPa 0,0 l/m 2,9 km/h (1 Bft) N 354 5 min 0,000 mm 5,0 UV-I 827 W/m 15,6 C 29,1 C 4,0 km/h (1 Bft) 0,00 %
04.07.2015 11:50 29,1 C 48 % 1019,8 hPa 0,0 l/m 3,2 km/h (1 Bft) O 88 5 min 0,000 mm 5,0 UV-I 827 W/m 16,9 C 29,1 C 4,0 km/h (1 Bft) 0,00 %
04.07.2015 11:55 28,9 C 48 % 1019,9 hPa 0,0 l/m 4,3 km/h (1 Bft) O-NO 71 5 min 0,000 mm 5,0 UV-I 848 W/m 16,8 C 28,9 C 7,9 km/h (2 Bft) 0,00 %
04.07.2015 12:00 28,8 C 45 % 1019,8 hPa 0,0 l/m 0,7 km/h (0 Bft) NO 35 5 min 0,000 mm 5,0 UV-I 855 W/m 15,7 C 28,8 C 4,0 km/h (1 Bft) 0,00 %
04.07.2015 12:05 28,9 C 46 % 1019,8 hPa 0,0 l/m 8,3 km/h (2 Bft) O-SO 120 5 min 0,000 mm 5,0 UV-I 865 W/m 16,1 C 28,7 C 11,9 km/h (2 Bft) 0,00 %
04.07.2015 12:10 29,2 C 44 % 1019,7 hPa 0,0 l/m 1,8 km/h (1 Bft) NO 56 5 min 0,000 mm 5,0 UV-I 863 W/m 15,7 C 29,2 C 4,0 km/h (1 Bft) 0,00 %
04.07.2015 12:15 29,4 C 44 % 1019,6 hPa 0,0 l/m 2,2 km/h (1 Bft) N 354 5 min 0,000 mm 5,0 UV-I 869 W/m 15,8 C 29,4 C 4,0 km/h (1 Bft) 0,00 %
04.07.2015 12:20 29,5 C 43 % 1019,7 hPa 0,0 l/m 0,0 km/h (0 Bft) O-NO 57 5 min 0,000 mm 5,0 UV-I 868 W/m 15,6 C 29,5 C 0,0 km/h (0 Bft) 0,00 %
04.07.2015 12:25 29,6 C 39 % 1019,6 hPa 0,0 l/m 1,8 km/h (1 Bft) O-SO 113 5 min 0,000 mm 6,0 UV-I 873 W/m 14,2 C 29,6 C 4,0 km/h (1 Bft) 0,00 %
04.07.2015 12:30 29,9 C 38 % 1019,5 hPa 0,0 l/m 0,7 km/h (0 Bft) O-NO 77 5 min 0,000 mm 6,0 UV-I 874 W/m 14,0 C 29,9 C 4,0 km/h (1 Bft) 0,00 %
04.07.2015 12:35 30,1 C 39 % 1019,5 hPa 0,0 l/m 2,9 km/h (1 Bft) S-SO 150 5 min 0,000 mm 6,0 UV-I 877 W/m 14,6 C 30,1 C 4,0 km/h (1 Bft) 0,00 %
04.07.2015 12:40 30,1 C 40 % 1019,3 hPa 0,0 l/m 0,4 km/h (0 Bft) O-NO 65 5 min 0,000 mm 6,0 UV-I 886 W/m 15,0 C 30,1 C 4,0 km/h (1 Bft) 0,00 %
04.07.2015 12:45 30,1 C 39 % 1019,4 hPa 0,0 l/m 0,0 km/h (0 Bft) O-NO 76 5 min 0,000 mm 6,0 UV-I 891 W/m 14,6 C 30,1 C 0,0 km/h (0 Bft) 0,00 %
04.07.2015 12:50 30,2 C 39 % 1019,3 hPa 0,0 l/m 9,4 km/h (2 Bft) O-SO 114 5 min 0,000 mm 6,0 UV-I 895 W/m 14,7 C 30,0 C 11,9 km/h (2 Bft) 0,00 %
04.07.2015 12:55 30,0 C 37 % 1019,2 hPa 0,0 l/m 5,8 km/h (2 Bft) S 180 5 min 0,000 mm 6,0 UV-I 901 W/m 13,7 C 30,0 C 11,9 km/h (2 Bft) 0,00 %
04.07.2015 13:00 29,9 C 39 % 1019,1 hPa 0,0 l/m 1,4 km/h (1 Bft) O-NO 63 5 min 0,000 mm 6,0 UV-I 911 W/m 14,4 C 29,9 C 4,0 km/h (1 Bft) 0,00 %
04.07.2015 13:05 30,0 C 39 % 1019,2 hPa 0,0 l/m 2,2 km/h (1 Bft) NO 54 5 min 0,000 mm 6,0 UV-I 906 W/m 14,5 C 30,0 C 4,0 km/h (1 Bft) 0,00 %
04.07.2015 13:10 30,1 C 35 % 1019,2 hPa 0,0 l/m 8,3 km/h (2 Bft) O 82 5 min 0,000 mm 6,0 UV-I 910 W/m 12,9 C 29,9 C 11,9 km/h (2 Bft) 0,00 %
04.07.2015 13:15 30,1 C 35 % 1019,1 hPa 0,0 l/m 0,7 km/h (0 Bft) O-NO 66 5 min 0,000 mm 6,0 UV-I 918 W/m 12,9 C 30,1 C 4,0 km/h (1 Bft) 0,00 %
04.07.2015 13:20 30,2 C 34 % 1019,2 hPa 0,0 l/m 5,8 km/h (2 Bft) O 90 5 min 0,000 mm 5,0 UV-I 923 W/m 12,6 C 30,2 C 7,9 km/h (2 Bft) 0,00 %
04.07.2015 13:25 30,4 C 35 % 1019,0 hPa 0,0 l/m 7,9 km/h (2 Bft) O 82 5 min 0,000 mm 5,0 UV-I 925 W/m 13,2 C 30,3 C 7,9 km/h (2 Bft) 0,00 %
04.07.2015 13:30 30,5 C 33 % 1018,9 hPa 0,0 l/m 4,0 km/h (1 Bft) O-SO 112 5 min 0,000 mm 5,0 UV-I 924 W/m 12,4 C 30,5 C 7,9 km/h (2 Bft) 0,00 %
04.07.2015 13:35 30,5 C 38 % 1018,7 hPa 0,0 l/m 4,3 km/h (1 Bft) SO 127 5 min 0,000 mm 5,0 UV-I 937 W/m 14,5 C 30,5 C 7,9 km/h (2 Bft) 0,00 %
04.07.2015 13:40 30,6 C 30 % 1018,8 hPa 0,0 l/m 2,9 km/h (1 Bft) O-NO 68 5 min 0,000 mm 5,0 UV-I 938 W/m 11,0 C 30,6 C 4,0 km/h (1 Bft) 0,00 %
04.07.2015 13:45 30,6 C 34 % 1018,8 hPa 0,0 l/m 3,2 km/h (1 Bft) O-NO 58 5 min 0,000 mm 5,0 UV-I 938 W/m 12,9 C 30,6 C 4,0 km/h (1 Bft) 0,00 %
04.07.2015 13:50 30,7 C 33 % 1018,9 hPa 0,0 l/m 2,2 km/h (1 Bft) O 91 5 min 0,000 mm 5,0 UV-I 946 W/m 12,6 C 30,7 C 4,0 km/h (1 Bft) 0,00 %
04.07.2015 13:55 30,7 C 31 % 1018,7 hPa 0,0 l/m 4,0 km/h (1 Bft) SO 125 5 min 0,000 mm 5,0 UV-I 952 W/m 11,6 C 30,7 C 7,9 km/h (2 Bft) 0,00 %
04.07.2015 14:00 30,7 C 31 % 1018,6 hPa 0,0 l/m 1,8 km/h (1 Bft) O-SO 113 5 min 0,000 mm 5,0 UV-I 962 W/m 11,6 C 30,7 C 4,0 km/h (1 Bft) 0,00 %
04.07.2015 14:05 30,9 C 28 % 1018,6 hPa 0,0 l/m 0,0 km/h (0 Bft) O-NO 71 5 min 0,000 mm 5,0 UV-I 974 W/m 10,2 C 30,9 C 0,0 km/h (0 Bft) 0,00 %
04.07.2015 14:10 31,0 C 29 % 1018,7 hPa 0,0 l/m 0,0 km/h (0 Bft) NO 55 5 min 0,000 mm 5,0 UV-I 968 W/m 10,9 C 31,0 C 0,0 km/h (0 Bft) 0,00 %
04.07.2015 14:15 31,0 C 31 % 1018,5 hPa 0,0 l/m 0,4 km/h (0 Bft) N-NW 341 5 min 0,000 mm 5,0 UV-I 971 W/m 11,9 C 31,0 C 4,0 km/h (1 Bft) 0,00 %
04.07.2015 14:20 31,0 C 30 % 1018,6 hPa 0,0 l/m 3,2 km/h (1 Bft) O-SO 110 5 min 0,000 mm 5,0 UV-I 972 W/m 11,4 C 31,0 C 4,0 km/h (1 Bft) 0,00 %
04.07.2015 14:25 31,3 C 26 % 1018,5 hPa 0,0 l/m 0,4 km/h (0 Bft) O-NO 72 5 min 0,000 mm 5,0 UV-I 970 W/m 9,5 C 31,3 C 4,0 km/h (1 Bft) 0,00 %
04.07.2015 14:30 31,6 C 29 % 1018,2 hPa 0,0 l/m 1,4 km/h (1 Bft) N 350 5 min 0,000 mm 5,0 UV-I 981 W/m 11,4 C 31,6 C 4,0 km/h (1 Bft) 0,00 %
04.07.2015 14:35 31,7 C 30 % 1018,2 hPa 0,0 l/m 2,9 km/h (1 Bft) N-NW 340 5 min 0,000 mm 5,0 UV-I 994 W/m 12,0 C 31,7 C 4,0 km/h (1 Bft) 0,00 %
04.07.2015 14:40 31,7 C 27 % 1018,3 hPa 0,0 l/m 2,2 km/h (1 Bft) O 87 5 min 0,000 mm 5,0 UV-I 983 W/m 10,4 C 31,7 C 4,0 km/h (1 Bft) 0,00 %
04.07.2015 14:45 31,6 C 25 % 1018,2 hPa 0,0 l/m 2,2 km/h (1 Bft) NO 41 5 min 0,000 mm 5,0 UV-I 978 W/m 9,1 C 31,6 C 4,0 km/h (1 Bft) 0,00 %
04.07.2015 14:50 31,7 C 22 % 1018,3 hPa 0,0 l/m 0,0 km/h (0 Bft) NO 47 5 min 0,000 mm 5,0 UV-I 971 W/m 7,3 C 31,7 C 0,0 km/h (0 Bft) 0,00 %
04.07.2015 14:55 31,9 C 28 % 1018,2 hPa 0,0 l/m 0,0 km/h (0 Bft) N-NO 31 5 min 0,000 mm 5,0 UV-I 974 W/m 11,1 C 31,9 C 0,0 km/h (0 Bft) 0,00 %
04.07.2015 15:00 32,3 C 26 % 1017,9 hPa 0,0 l/m 4,0 km/h (1 Bft) O-NO 63 5 min 0,000 mm 5,0 UV-I 976 W/m 10,3 C 32,3 C 4,0 km/h (1 Bft) 0,00 %
04.07.2015 15:05 32,4 C 25 % 1017,9 hPa 0,0 l/m 0,4 km/h (0 Bft) N-NW 348 5 min 0,000 mm 5,0 UV-I 973 W/m 9,8 C 32,4 C 4,0 km/h (1 Bft) 0,00 %
04.07.2015 15:10 32,3 C 25 % 1018,0 hPa 0,0 l/m 1,4 km/h (1 Bft) O 92 5 min 0,000 mm 5,0 UV-I 975 W/m 9,7 C 32,3 C 4,0 km/h (1 Bft) 0,00 %
04.07.2015 15:15 32,4 C 25 % 1018,1 hPa 0,0 l/m 4,3 km/h (1 Bft) O-SO 103 5 min 0,000 mm 4,0 UV-I 974 W/m 9,8 C 32,4 C 7,9 km/h (2 Bft) 0,00 %
04.07.2015 15:20 32,5 C 26 % 1018,1 hPa 0,0 l/m 0,0 km/h (0 Bft) NO 36 5 min 0,000 mm 4,0 UV-I 975 W/m 10,5 C 32,5 C 0,0 km/h (0 Bft) 0,00 %
04.07.2015 15:25 32,4 C 25 % 1018,0 hPa 0,0 l/m 0,0 km/h (0 Bft) NO 44 5 min 0,000 mm 4,0 UV-I 968 W/m 9,8 C 32,4 C 0,0 km/h (0 Bft) 0,00 %
04.07.2015 15:30 32,2 C 27 % 1018,0 hPa 0,0 l/m 5,4 km/h (1 Bft) SO 128 5 min 0,000 mm 4,0 UV-I 974 W/m 10,8 C 32,2 C 7,9 km/h (2 Bft) 0,00 %
04.07.2015 15:35 32,1 C 27 % 1018,1 hPa 0,0 l/m 0,0 km/h (0 Bft) O-NO 64 5 min 0,000 mm 4,0 UV-I 967 W/m 10,7 C 32,1 C 0,0 km/h (0 Bft) 0,00 %
04.07.2015 15:40 32,1 C 27 % 1018,1 hPa 0,0 l/m 3,2 km/h (1 Bft) O-SO 111 5 min 0,000 mm 4,0 UV-I 969 W/m 10,7 C 32,1 C 4,0 km/h (1 Bft) 0,00 %
04.07.2015 15:45 32,2 C 28 % 1018,0 hPa 0,0 l/m 4,0 km/h (1 Bft) SO 128 5 min 0,000 mm 4,0 UV-I 972 W/m 11,3 C 32,2 C 7,9 km/h (2 Bft) 0,00 %
04.07.2015 15:50 32,3 C 25 % 1017,8 hPa 0,0 l/m 0,0 km/h (0 Bft) NO 44 5 min 0,000 mm 4,0 UV-I 955 W/m 9,7 C 32,3 C 0,0 km/h (0 Bft) 0,00 %
04.07.2015 15:55 32,3 C 28 % 1017,7 hPa 0,0 l/m 0,0 km/h (0 Bft) N-NO 33 5 min 0,000 mm 4,0 UV-I 954 W/m 11,4 C 32,3 C 0,0 km/h (0 Bft) 0,00 %
04.07.2015 16:00 32,5 C 28 % 1017,7 hPa 0,0 l/m 1,4 km/h (1 Bft) N-NW 337 5 min 0,000 mm 4,0 UV-I 954 W/m 11,6 C 32,5 C 4,0 km/h (1 Bft) 0,00 %
04.07.2015 16:05 32,7 C 28 % 1017,6 hPa 0,0 l/m 0,0 km/h (0 Bft) NO 48 5 min 0,000 mm 4,0 UV-I 959 W/m 11,8 C 32,7 C 0,0 km/h (0 Bft) 0,00 %
04.07.2015 16:10 32,7 C 25 % 1017,7 hPa 0,0 l/m 1,8 km/h (1 Bft) O 82 5 min 0,000 mm 4,0 UV-I 951 W/m 10,1 C 32,7 C 4,0 km/h (1 Bft) 0,00 %
04.07.2015 16:15 32,8 C 24 % 1017,5 hPa 0,0 l/m 0,0 km/h (0 Bft) NO 39 5 min 0,000 mm 3,0 UV-I 942 W/m 9,5 C 32,8 C 0,0 km/h (0 Bft) 0,00 %
04.07.2015 16:20 32,8 C 24 % 1017,6 hPa 0,0 l/m 2,2 km/h (1 Bft) O-NO 68 5 min 0,000 mm 3,0 UV-I 932 W/m 9,5 C 32,8 C 4,0 km/h (1 Bft) 0,00 %
04.07.2015 16:25 32,8 C 23 % 1017,6 hPa 0,0 l/m 0,0 km/h (0 Bft) O-NO 59 5 min 0,000 mm 3,0 UV-I 920 W/m 8,9 C 32,8 C 0,0 km/h (0 Bft) 0,00 %
04.07.2015 16:30 32,8 C 25 % 1017,4 hPa 0,0 l/m 0,0 km/h (0 Bft) NO 46 5 min 0,000 mm 3,0 UV-I 916 W/m 10,2 C 32,8 C 0,0 km/h (0 Bft) 0,00 %
04.07.2015 16:35 33,0 C 26 % 1017,3 hPa 0,0 l/m 1,4 km/h (1 Bft) O 88 5 min 0,000 mm 3,0 UV-I 919 W/m 10,9 C 33,0 C 4,0 km/h (1 Bft) 0,00 %
04.07.2015 16:40 33,1 C 23 % 1017,3 hPa 0,0 l/m 0,0 km/h (0 Bft) N 358 5 min 0,000 mm 3,0 UV-I 903 W/m 9,2 C 33,1 C 0,0 km/h (0 Bft) 0,00 %
04.07.2015 16:45 33,2 C 23 % 1017,4 hPa 0,0 l/m 0,0 km/h (0 Bft) NO 45 5 min 0,000 mm 3,0 UV-I 895 W/m 9,2 C 33,2 C 0,0 km/h (0 Bft) 0,00 %
04.07.2015 16:50 33,0 C 26 % 1017,2 hPa 0,0 l/m 0,0 km/h (0 Bft) O 80 5 min 0,000 mm 3,0 UV-I 892 W/m 10,9 C 33,0 C 0,0 km/h (0 Bft) 0,00 %
04.07.2015 16:55 32,7 C 25 % 1017,2 hPa 0,0 l/m 0,0 km/h (0 Bft) NO 46 5 min 0,000 mm 3,0 UV-I 876 W/m 10,1 C 32,7 C 0,0 km/h (0 Bft) 0,00 %
04.07.2015 17:00 32,8 C 26 % 1017,2 hPa 0,0 l/m 0,0 km/h (0 Bft) O-SO 113 5 min 0,000 mm 3,0 UV-I 874 W/m 10,7 C 32,8 C 0,0 km/h (0 Bft) 0,00 %
04.07.2015 17:05 32,7 C 31 % 1017,3 hPa 0,0 l/m 0,0 km/h (0 Bft) O 89 5 min 0,000 mm 2,0 UV-I 861 W/m 13,3 C 32,7 C 0,0 km/h (0 Bft) 0,00 %
04.07.2015 17:10 32,6 C 27 % 1017,2 hPa 0,0 l/m 0,0 km/h (0 Bft) NO 42 5 min 0,000 mm 2,0 UV-I 848 W/m 11,1 C 32,6 C 0,0 km/h (0 Bft) 0,00 %
04.07.2015 17:15 32,6 C 27 % 1017,3 hPa 0,0 l/m 2,2 km/h (1 Bft) O-NO 77 5 min 0,000 mm 2,0 UV-I 834 W/m 11,1 C 32,6 C 4,0 km/h (1 Bft) 0,00 %
04.07.2015 17:20 32,7 C 26 % 1017,1 hPa 0,0 l/m 0,0 km/h (0 Bft) NO 49 5 min 0,000 mm 2,0 UV-I 824 W/m 10,7 C 32,7 C 0,0 km/h (0 Bft) 0,00 %
04.07.2015 17:25 32,7 C 28 % 1017,1 hPa 0,0 l/m 0,4 km/h (0 Bft) O 80 5 min 0,000 mm 2,0 UV-I 803 W/m 11,8 C 32,7 C 4,0 km/h (1 Bft) 0,00 %
04.07.2015 17:30 32,6 C 27 % 1017,1 hPa 0,0 l/m 0,7 km/h (0 Bft) O-NO 76 5 min 0,000 mm 2,0 UV-I 804 W/m 11,1 C 32,6 C 4,0 km/h (1 Bft) 0,00 %
04.07.2015 17:35 32,6 C 27 % 1017,0 hPa 0,0 l/m 0,0 km/h (0 Bft) NO 45 5 min 0,000 mm 2,0 UV-I 771 W/m 11,1 C 32,6 C 0,0 km/h (0 Bft) 0,00 %
04.07.2015 17:40 32,7 C 29 % 1016,9 hPa 0,0 l/m 0,0 km/h (0 Bft) O 83 5 min 0,000 mm 2,0 UV-I 764 W/m 12,3 C 32,7 C 0,0 km/h (0 Bft) 0,00 %
04.07.2015 17:45 32,7 C 30 % 1017,1 hPa 0,0 l/m 0,0 km/h (0 Bft) O-NO 76 5 min 0,000 mm 1,0 UV-I 741 W/m 12,8 C 32,7 C 0,0 km/h (0 Bft) 0,00 %
04.07.2015 17:50 32,8 C 30 % 1016,8 hPa 0,0 l/m 4,3 km/h (1 Bft) O-SO 117 5 min 0,000 mm 1,0 UV-I 730 W/m 12,9 C 32,8 C 7,9 km/h (2 Bft) 0,00 %
04.07.2015 17:55 32,6 C 26 % 1016,8 hPa 0,0 l/m 0,0 km/h (0 Bft) NO 42 5 min 0,000 mm 1,0 UV-I 708 W/m 10,6 C 32,6 C 0,0 km/h (0 Bft) 0,00 %
04.07.2015 18:00 32,4 C 29 % 1016,8 hPa 0,0 l/m 0,0 km/h (0 Bft) NO 47 5 min 0,000 mm 1,0 UV-I 700 W/m 12,1 C 32,4 C 0,0 km/h (0 Bft) 0,00 %
04.07.2015 18:05 32,5 C 32 % 1016,8 hPa 0,0 l/m 0,0 km/h (0 Bft) NO 42 5 min 0,000 mm 1,0 UV-I 670 W/m 13,6 C 32,5 C 0,0 km/h (0 Bft) 0,00 %
04.07.2015 18:10 32,4 C 32 % 1016,7 hPa 0,0 l/m 1,8 km/h (1 Bft) O-SO 119 5 min 0,000 mm 1,0 UV-I 643 W/m 13,6 C 32,4 C 4,0 km/h (1 Bft) 0,00 %
04.07.2015 18:15 32,3 C 29 % 1016,8 hPa 0,0 l/m 0,0 km/h (0 Bft) O-NO 60 5 min 0,000 mm 1,0 UV-I 619 W/m 12,0 C 32,3 C 0,0 km/h (0 Bft) 0,00 %
04.07.2015 18:20 32,6 C 28 % 1016,8 hPa 0,0 l/m 0,0 km/h (0 Bft) NO 52 5 min 0,000 mm 1,0 UV-I 597 W/m 11,7 C 32,6 C 0,0 km/h (0 Bft) 0,00 %
04.07.2015 18:25 32,8 C 30 % 1016,6 hPa 0,0 l/m 0,7 km/h (0 Bft) O-NO 65 5 min 0,000 mm 1,0 UV-I 567 W/m 12,9 C 32,8 C 4,0 km/h (1 Bft) 0,00 %
04.07.2015 18:30 32,8 C 29 % 1016,6 hPa 0,0 l/m 0,0 km/h (0 Bft) O-SO 120 5 min 0,000 mm 1,0 UV-I 534 W/m 12,4 C 32,8 C 0,0 km/h (0 Bft) 0,00 %
04.07.2015 18:35 32,6 C 30 % 1016,5 hPa 0,0 l/m 0,0 km/h (0 Bft) O 84 5 min 0,000 mm 1,0 UV-I 512 W/m 12,7 C 32,6 C 0,0 km/h (0 Bft) 0,00 %
04.07.2015 18:40 32,6 C 29 % 1016,6 hPa 0,0 l/m 0,0 km/h (0 Bft) O 97 5 min 0,000 mm 1,0 UV-I 466 W/m 12,2 C 32,6 C 0,0 km/h (0 Bft) 0,00 %
04.07.2015 18:45 32,7 C 28 % 1016,7 hPa 0,0 l/m 0,0 km/h (0 Bft) O 98 5 min 0,000 mm 1,0 UV-I 453 W/m 11,8 C 32,7 C 0,0 km/h (0 Bft) 0,00 %
04.07.2015 18:50 32,8 C 32 % 1016,6 hPa 0,0 l/m 0,0 km/h (0 Bft) O-NO 68 5 min 0,000 mm 1,0 UV-I 424 W/m 13,9 C 32,8 C 0,0 km/h (0 Bft) 0,00 %
04.07.2015 18:55 32,7 C 32 % 1016,5 hPa 0,0 l/m 0,0 km/h (0 Bft) O-NO 66 5 min 0,000 mm 1,0 UV-I 380 W/m 13,8 C 32,7 C 0,0 km/h (0 Bft) 0,00 %
04.07.2015 19:00 32,7 C 30 % 1016,4 hPa 0,0 l/m 0,7 km/h (0 Bft) O-SO 102 5 min 0,000 mm 1,0 UV-I 356 W/m 12,8 C 32,7 C 4,0 km/h (1 Bft) 0,00 %
04.07.2015 19:05 32,6 C 32 % 1016,8 hPa 0,0 l/m 0,0 km/h (0 Bft) O-NO 60 5 min 0,000 mm 1,0 UV-I 309 W/m 13,7 C 32,6 C 0,0 km/h (0 Bft) 0,00 %
04.07.2015 19:10 32,5 C 32 % 1016,6 hPa 0,0 l/m 0,0 km/h (0 Bft) NO 49 5 min 0,000 mm 1,0 UV-I 262 W/m 13,6 C 32,5 C 0,0 km/h (0 Bft) 0,00 %
04.07.2015 19:15 32,4 C 33 % 1016,9 hPa 0,0 l/m 0,0 km/h (0 Bft) O-NO 61 5 min 0,000 mm 1,0 UV-I 192 W/m 14,0 C 32,4 C 0,0 km/h (0 Bft) 0,00 %
04.07.2015 19:20 32,2 C 34 % 1016,7 hPa 0,0 l/m 0,0 km/h (0 Bft) O-NO 65 5 min 0,000 mm 1,0 UV-I 167 W/m 14,3 C 32,2 C 0,0 km/h (0 Bft) 0,00 %
04.07.2015 19:25 32,0 C 36 % 1016,7 hPa 0,0 l/m 0,0 km/h (0 Bft) O-NO 68 0 min 0,000 mm 1,0 UV-I 128 W/m 15,0 C 32,0 C 0,0 km/h (0 Bft) 0,00 %
04.07.2015 19:30 31,7 C 38 % 1016,7 hPa 0,0 l/m 0,0 km/h (0 Bft) O 97 0 min 0,000 mm 1,0 UV-I 108 W/m 15,6 C 31,7 C 0,0 km/h (0 Bft) 0,00 %
04.07.2015 19:35 31,5 C 38 % 1016,8 hPa 0,0 l/m 0,0 km/h (0 Bft) O 80 5 min 0,000 mm 1,0 UV-I 147 W/m 15,4 C 31,5 C 0,0 km/h (0 Bft) 0,00 %
04.07.2015 19:40 31,2 C 40 % 1016,8 hPa 0,0 l/m 0,0 km/h (0 Bft) O-NO 65 5 min 0,000 mm 1,0 UV-I 133 W/m 16,0 C 31,2 C 0,0 km/h (0 Bft) 0,00 %
04.07.2015 19:45 30,8 C 40 % 1016,8 hPa 0,0 l/m 0,0 km/h (0 Bft) O-NO 62 5 min 0,000 mm 1,0 UV-I 114 W/m 15,6 C 30,8 C 0,0 km/h (0 Bft) 0,00 %
04.07.2015 19:50 30,5 C 41 % 1016,9 hPa 0,0 l/m 0,0 km/h (0 Bft) O 94 0 min 0,000 mm 0,0 UV-I 93 W/m 15,7 C 30,5 C 0,0 km/h (0 Bft) 0,00 %
04.07.2015 19:55 30,1 C 44 % 1016,9 hPa 0,0 l/m 0,0 km/h (0 Bft) O-NO 69 0 min 0,000 mm 0,0 UV-I 54 W/m 16,5 C 30,1 C 0,0 km/h (0 Bft) 0,00 %
04.07.2015 20:00 29,6 C 44 % 1017,0 hPa 0,0 l/m 1,4 km/h (1 Bft) O-SO 114 0 min 0,000 mm 0,0 UV-I 43 W/m 16,0 C 29,6 C 4,0 km/h (1 Bft) 0,00 %
04.07.2015 20:05 29,2 C 45 % 1017,0 hPa 0,0 l/m 0,0 km/h (0 Bft) NO 56 0 min 0,000 mm 0,0 UV-I 27 W/m 16,0 C 29,2 C 0,0 km/h (0 Bft) 0,00 %
04.07.2015 20:10 28,8 C 44 % 1017,0 hPa 0,0 l/m 0,0 km/h (0 Bft) O-SO 107 0 min 0,000 mm 0,0 UV-I 18 W/m 15,3 C 28,8 C 0,0 km/h (0 Bft) 0,00 %
04.07.2015 20:15 28,7 C 45 % 1017,1 hPa 0,0 l/m 0,0 km/h (0 Bft) O 94 0 min 0,000 mm 0,0 UV-I 9 W/m 15,6 C 28,7 C 0,0 km/h (0 Bft) 0,00 %
04.07.2015 20:20 28,6 C 45 % 1017,1 hPa 0,0 l/m 0,0 km/h (0 Bft) O-SO 106 0 min 0,000 mm 0,0 UV-I 5 W/m 15,5 C 28,6 C 0,0 km/h (0 Bft) 0,00 %
04.07.2015 20:25 28,5 C 45 % 1017,1 hPa 0,0 l/m 0,0 km/h (0 Bft) O-NO 73 0 min 0,000 mm 0,0 UV-I 1 W/m 15,4 C 28,5 C 0,0 km/h (0 Bft) 0,00 %
04.07.2015 20:30 28,3 C 46 % 1017,2 hPa 0,0 l/m 0,0 km/h (0 Bft) O 92 0 min 0,000 mm 0,0 UV-I 0 W/m 15,6 C 28,3 C 0,0 km/h (0 Bft) 0,00 %
04.07.2015 20:35 28,0 C 48 % 1017,2 hPa 0,0 l/m 0,4 km/h (0 Bft) O-SO 106 0 min 0,000 mm 0,0 UV-I 0 W/m 15,9 C 28,0 C 4,0 km/h (1 Bft) 0,00 %
04.07.2015 20:40 27,5 C 50 % 1017,4 hPa 0,0 l/m 0,4 km/h (0 Bft) O 100 0 min 0,000 mm 0,0 UV-I 0 W/m 16,1 C 27,5 C 4,0 km/h (1 Bft) 0,00 %
04.07.2015 20:45 27,0 C 49 % 1017,4 hPa 0,0 l/m 1,4 km/h (1 Bft) O-NO 63 0 min 0,000 mm 0,0 UV-I 0 W/m 15,4 C 27,0 C 4,0 km/h (1 Bft) 0,00 %
04.07.2015 20:50 26,7 C 51 % 1017,5 hPa 0,0 l/m 0,0 km/h (0 Bft) NO 54 0 min 0,000 mm 0,0 UV-I 0 W/m 15,7 C 26,7 C 0,0 km/h (0 Bft) 0,00 %
04.07.2015 20:55 26,5 C 50 % 1017,5 hPa 0,0 l/m 1,4 km/h (1 Bft) O-NO 73 0 min 0,000 mm 0,0 UV-I 0 W/m 15,2 C 26,5 C 4,0 km/h (1 Bft) 0,00 %
04.07.2015 21:00 26,3 C 51 % 1017,4 hPa 0,0 l/m 3,2 km/h (1 Bft) O 97 0 min 0,000 mm 0,0 UV-I 0 W/m 15,3 C 26,3 C 4,0 km/h (1 Bft) 0,00 %
04.07.2015 21:05 26,1 C 52 % 1017,6 hPa 0,0 l/m 1,4 km/h (1 Bft) O-SO 119 0 min 0,000 mm 0,0 UV-I 0 W/m 15,5 C 26,1 C 4,0 km/h (1 Bft) 0,00 %
04.07.2015 21:10 26,0 C 54 % 1017,5 hPa 0,0 l/m 0,7 km/h (0 Bft) O 101 0 min 0,000 mm 0,0 UV-I 0 W/m 16,0 C 26,0 C 4,0 km/h (1 Bft) 0,00 %
04.07.2015 21:15 25,8 C 54 % 1017,8 hPa 0,0 l/m 0,0 km/h (0 Bft) O-NO 63 0 min 0,000 mm 0,0 UV-I 0 W/m 15,8 C 25,8 C 0,0 km/h (0 Bft) 0,00 %
04.07.2015 21:20 25,6 C 55 % 1017,7 hPa 0,0 l/m 0,0 km/h (0 Bft) O-NO 60 0 min 0,000 mm 0,0 UV-I 0 W/m 15,9 C 25,6 C 0,0 km/h (0 Bft) 0,00 %
04.07.2015 21:25 25,4 C 56 % 1017,9 hPa 0,0 l/m 0,0 km/h (0 Bft) O 101 0 min 0,000 mm 0,0 UV-I 0 W/m 16,0 C 25,4 C 0,0 km/h (0 Bft) 0,00 %
04.07.2015 21:30 25,1 C 56 % 1017,9 hPa 0,0 l/m 0,0 km/h (0 Bft) O 95 0 min 0,000 mm 0,0 UV-I 0 W/m 15,7 C 25,1 C 0,0 km/h (0 Bft) 0,00 %
04.07.2015 21:35 25,0 C 55 % 1017,8 hPa 0,0 l/m 4,7 km/h (1 Bft) O-SO 117 0 min 0,000 mm 0,0 UV-I 0 W/m 15,3 C 25,0 C 7,9 km/h (2 Bft) 0,00 %
04.07.2015 21:40 24,9 C 54 % 1017,9 hPa 0,0 l/m 4,3 km/h (1 Bft) O-SO 106 0 min 0,000 mm 0,0 UV-I 0 W/m 14,9 C 24,9 C 7,9 km/h (2 Bft) 0,00 %
04.07.2015 21:45 25,0 C 53 % 1017,7 hPa 0,0 l/m 1,8 km/h (1 Bft) O 94 0 min 0,000 mm 0,0 UV-I 0 W/m 14,7 C 25,0 C 4,0 km/h (1 Bft) 0,00 %
04.07.2015 21:50 25,0 C 53 % 1017,8 hPa 0,0 l/m 0,4 km/h (0 Bft) NO 45 0 min 0,000 mm 0,0 UV-I 0 W/m 14,7 C 25,0 C 4,0 km/h (1 Bft) 0,00 %
04.07.2015 21:55 25,0 C 52 % 1018,0 hPa 0,0 l/m 2,9 km/h (1 Bft) O-SO 115 0 min 0,000 mm 0,0 UV-I 0 W/m 14,4 C 25,0 C 4,0 km/h (1 Bft) 0,00 %
04.07.2015 22:00 25,0 C 52 % 1017,8 hPa 0,0 l/m 1,4 km/h (1 Bft) O 90 0 min 0,000 mm 0,0 UV-I 0 W/m 14,4 C 25,0 C 4,0 km/h (1 Bft) 0,00 %
04.07.2015 22:05 24,9 C 53 % 1017,9 hPa 0,0 l/m 2,9 km/h (1 Bft) O-SO 112 0 min 0,000 mm 0,0 UV-I 0 W/m 14,6 C 24,9 C 4,0 km/h (1 Bft) 0,00 %
04.07.2015 22:10 24,8 C 54 % 1017,9 hPa 0,0 l/m 1,4 km/h (1 Bft) O 81 0 min 0,000 mm 0,0 UV-I 0 W/m 14,8 C 24,8 C 4,0 km/h (1 Bft) 0,00 %
04.07.2015 22:15 24,7 C 54 % 1018,0 hPa 0,0 l/m 1,4 km/h (1 Bft) O-SO 111 0 min 0,000 mm 0,0 UV-I 0 W/m 14,8 C 24,7 C 4,0 km/h (1 Bft) 0,00 %
04.07.2015 22:20 24,5 C 53 % 1017,8 hPa 0,0 l/m 0,0 km/h (0 Bft) O-SO 111 0 min 0,000 mm 0,0 UV-I 0 W/m 14,3 C 24,5 C 0,0 km/h (0 Bft) 0,00 %
04.07.2015 22:25 24,3 C 54 % 1018,2 hPa 0,0 l/m 0,0 km/h (0 Bft) NO 53 0 min 0,000 mm 0,0 UV-I 0 W/m 14,4 C 24,3 C 0,0 km/h (0 Bft) 0,00 %
04.07.2015 22:30 24,3 C 54 % 1017,9 hPa 0,0 l/m 0,0 km/h (0 Bft) O-NO 58 0 min 0,000 mm 0,0 UV-I 0 W/m 14,4 C 24,3 C 0,0 km/h (0 Bft) 0,00 %
04.07.2015 22:35 24,2 C 56 % 1017,9 hPa 0,0 l/m 0,0 km/h (0 Bft) O-NO 57 0 min 0,000 mm 0,0 UV-I 0 W/m 14,9 C 24,2 C 0,0 km/h (0 Bft) 0,00 %
04.07.2015 22:40 23,9 C 58 % 1018,2 hPa 0,0 l/m 0,0 km/h (0 Bft) NO 56 0 min 0,000 mm 0,0 UV-I 0 W/m 15,1 C 23,9 C 0,0 km/h (0 Bft) 0,00 %
04.07.2015 22:45 23,7 C 59 % 1018,0 hPa 0,0 l/m 0,0 km/h (0 Bft) O 82 0 min 0,000 mm 0,0 UV-I 0 W/m 15,2 C 23,7 C 0,0 km/h (0 Bft) 0,00 %
04.07.2015 22:50 23,4 C 59 % 1018,1 hPa 0,0 l/m 0,0 km/h (0 Bft) O-NO 60 0 min 0,000 mm 0,0 UV-I 0 W/m 14,9 C 23,4 C 0,0 km/h (0 Bft) 0,00 %
04.07.2015 22:55 23,2 C 60 % 1018,1 hPa 0,0 l/m 0,0 km/h (0 Bft) O-NO 70 0 min 0,000 mm 0,0 UV-I 0 W/m 15,0 C 23,2 C 0,0 km/h (0 Bft) 0,00 %
04.07.2015 23:00 23,1 C 60 % 1018,1 hPa 0,0 l/m 0,0 km/h (0 Bft) NO 49 0 min 0,000 mm 0,0 UV-I 0 W/m 14,9 C 23,1 C 0,0 km/h (0 Bft) 0,00 %
04.07.2015 23:05 23,0 C 59 % 1018,1 hPa 0,0 l/m 0,0 km/h (0 Bft) NO 54 0 min 0,000 mm 0,0 UV-I 0 W/m 14,5 C 23,0 C 0,0 km/h (0 Bft) 0,00 %
04.07.2015 23:10 23,0 C 63 % 1018,1 hPa 0,0 l/m 0,0 km/h (0 Bft) NO 41 0 min 0,000 mm 0,0 UV-I 0 W/m 15,6 C 23,0 C 0,0 km/h (0 Bft) 0,00 %
04.07.2015 23:15 22,9 C 65 % 1018,0 hPa 0,0 l/m 0,0 km/h (0 Bft) NO 34 0 min 0,000 mm 0,0 UV-I 0 W/m 16,0 C 22,9 C 0,0 km/h (0 Bft) 0,00 %
04.07.2015 23:20 22,6 C 68 % 1018,3 hPa 0,0 l/m 0,0 km/h (0 Bft) NO 44 0 min 0,000 mm 0,0 UV-I 0 W/m 16,4 C 22,6 C 0,0 km/h (0 Bft) 0,00 %
04.07.2015 23:25 22,2 C 69 % 1018,5 hPa 0,0 l/m 0,0 km/h (0 Bft) NO 46 0 min 0,000 mm 0,0 UV-I 0 W/m 16,2 C 22,2 C 0,0 km/h (0 Bft) 0,00 %
04.07.2015 23:30 21,8 C 69 % 1018,6 hPa 0,0 l/m 0,0 km/h (0 Bft) NO 42 0 min 0,000 mm 0,0 UV-I 0 W/m 15,9 C 21,8 C 0,0 km/h (0 Bft) 0,00 %
04.07.2015 23:35 21,6 C 69 % 1018,5 hPa 0,0 l/m 0,0 km/h (0 Bft) NO 39 0 min 0,000 mm 0,0 UV-I 0 W/m 15,7 C 21,6 C 0,0 km/h (0 Bft) 0,00 %
04.07.2015 23:40 21,3 C 71 % 1018,6 hPa 0,0 l/m 0,0 km/h (0 Bft) NO 53 0 min 0,000 mm 0,0 UV-I 0 W/m 15,8 C 21,3 C 0,0 km/h (0 Bft) 0,00 %
04.07.2015 23:45 21,0 C 71 % 1018,5 hPa 0,0 l/m 0,0 km/h (0 Bft) O-NO 75 0 min 0,000 mm 0,0 UV-I 0 W/m 15,5 C 21,0 C 0,0 km/h (0 Bft) 0,00 %
04.07.2015 23:50 20,9 C 70 % 1018,6 hPa 0,0 l/m 0,0 km/h (0 Bft) O-NO 75 0 min 0,000 mm 0,0 UV-I 0 W/m 15,2 C 20,9 C 0,0 km/h (0 Bft) 0,00 %
_ Min-Zeit 05:10 14:50 19:00 - 00:05 - - - - - - 14:50 05:10 00:05 00:00
Minimum _ 15,5 C 22 % 1016,4 hPa - 0,0 km/h (0 Bft) - - - - - - 7,3 C 15,5 C 0,0 km/h (0 Bft) 0,00 %
_ Max-Zeit 16:45 04:50 00:55 00:00 12:50 - - 05:30 00:00 12:25 14:35 11:10 16:45 11:10 00:00
Maximum _ 33,2 C 91 % 1023,3 hPa 0,0 l/m 9,4 km/h
O-SO (2 Bft)
- - 5 min 0,000 mm 6,0 UV-I 994 W/m 17,2 C 33,2 C 11,9 km/h
SO (2 Bft)
0,00 %
Durchschnitt _ 25,4 C 54 % 1019,8 hPa #0,0 l/m 0,8 km/h (0 Bft) O-SO - #14:10 h #0,000 mm 3,1 UV-I 622 W/m 14,2 C 25,4 C 1,7 km/h (1 Bft) 0,00 %